Location: Newark
(50.4348°N, 30.5552°E)
Time: 17:06:26
(UTC+00:00)

Transit 4A - All Passes

Search period start: 29 January 2020 00:00
Search period end: 08 February 2020 00:00
Orbit: 872 x 973 km, 66.8° (Epoch: 28 January)

Date Brightness Start Highest point End Pass type
(mag) Time Alt. Az. Time Alt. Az. Time Alt. Az.
29 Jan - 03:14:18 10° S 03:19:54 42° ESE 03:25:24 10° NE visible
29 Jan - 05:00:27 10° WSW 05:06:13 48° NW 05:11:55 10° NNE visible
29 Jan - 06:49:48 10° WNW 06:54:00 20° NNW 06:58:11 10° NNE daylight
29 Jan - 08:39:02 10° NNW 08:42:41 17° N 08:46:20 10° NE daylight
29 Jan - 10:25:45 10° NNW 10:30:56 32° NE 10:36:07 10° E daylight
29 Jan - 12:12:00 10° NW 12:17:49 74° WSW 12:23:38 10° SSE daylight
29 Jan - 14:00:12 10° WNW 14:03:10 14° WSW 14:06:09 10° SW daylight
30 Jan - 01:42:37 10° ESE 01:43:56 11° E 01:45:17 10° E visible
30 Jan - 03:23:14 10° SSW 03:29:07 58° ESE 03:34:53 10° NE visible
30 Jan - 05:10:14 10° WSW 05:15:45 38° NW 05:21:12 10° NNE daylight
30 Jan - 06:59:56 10° NW 07:03:48 18° NNW 07:07:40 10° NNE daylight
30 Jan - 08:48:36 10° NNW 08:52:31 18° NNE 08:56:26 10° ENE daylight
30 Jan - 10:35:03 10° NNW 10:40:31 40° NE 10:46:00 10° ESE daylight
30 Jan - 12:21:25 10° NW 12:27:03 53° WSW 12:32:44 10° SSE daylight
31 Jan - 01:49:19 10° SE 01:52:54 17° ESE 01:56:27 10° ENE visible
31 Jan - 03:32:23 10° SSW 03:38:23 80° SE 03:44:17 10° NE visible
31 Jan - 05:20:10 10° W 05:25:21 30° NNW 05:30:29 10° NNE daylight
31 Jan - 07:10:01 10° NW 07:13:39 16° N 07:17:16 10° NNE daylight
31 Jan - 08:58:04 10° NNW 09:02:20 20° NNE 09:06:33 10° ENE daylight
31 Jan - 10:44:19 10° NNW 10:50:02 52° NE 10:55:44 10° ESE daylight
31 Jan - 12:30:57 10° NW 12:36:14 37° WSW 12:41:34 10° S daylight
01 Feb - 01:57:18 10° SSE 02:01:56 24° ESE 02:06:30 10° ENE visible
01 Feb - 03:41:45 10° SW 03:47:44 76° NW 03:53:37 10° NE visible
01 Feb - 05:30:11 10° W 05:35:00 25° NNW 05:39:48 10° NNE daylight
01 Feb - 07:20:00 10° NW 07:23:31 16° N 07:27:01 10° NE daylight
01 Feb - 09:07:27 10° NNW 09:12:04 23° NNE 09:16:41 10° ENE daylight
01 Feb - 10:53:38 10° NW 10:59:28 69° NE 11:05:19 10° SE daylight
01 Feb - 12:40:37 10° NW 12:45:22 26° WSW 12:50:09 10° SSW daylight
02 Feb - 02:05:45 10° S 02:11:02 34° ESE 02:16:14 10° NE visible
02 Feb - 03:51:16 10° SW 03:57:08 57° NW 04:02:57 10° NNE visible
02 Feb - 05:40:18 10° WNW 05:44:45 21° NNW 05:49:09 10° NNE daylight
02 Feb - 07:29:50 10° NNW 07:33:22 16° N 07:36:55 10° NE daylight
02 Feb - 09:16:47 10° NNW 09:21:46 28° NNE 09:26:44 10° E daylight
02 Feb - 11:02:58 10° NW 11:08:50 89° WSW 11:14:44 10° SE daylight
02 Feb - 12:50:33 10° WNW 12:54:24 18° WSW 12:58:18 10° SSW daylight
03 Feb - 02:14:30 10° S 02:20:12 47° ESE 02:25:48 10° NE visible
03 Feb - 04:00:58 10° WSW 04:06:38 44° NW 04:12:14 10° NNE visible
03 Feb - 05:50:27 10° WNW 05:54:31 19° NNW 05:58:34 10° NNE daylight
03 Feb - 07:39:29 10° NNW 07:43:13 17° N 07:46:57 10° NE daylight
03 Feb - 09:26:05 10° NNW 09:31:23 34° NE 09:36:41 10° ESE daylight
03 Feb - 11:12:22 10° NW 11:18:09 65° WSW 11:23:56 10° SSE daylight
03 Feb - 13:01:08 10° WNW 13:03:23 12° WSW 13:05:38 10° SW daylight
04 Feb - 00:41:43 10° SE 00:44:09 13° ESE 00:46:34 10° ENE visible
04 Feb - 02:23:31 10° SSW 02:29:26 66° ESE 02:35:15 10° NE visible
04 Feb - 04:10:48 10° WSW 04:16:11 35° NW 04:21:31 10° NNE visible
04 Feb - 06:00:35 10° NW 06:04:20 17° N 06:08:05 10° NNE daylight
04 Feb - 07:49:00 10° NNW 07:53:03 19° NNE 07:57:04 10° ENE daylight
04 Feb - 09:35:22 10° NNW 09:40:57 44° NE 09:46:31 10° ESE daylight
04 Feb - 11:21:49 10° NW 11:27:22 47° WSW 11:32:56 10° S daylight
05 Feb - 00:49:08 10° SSE 00:53:08 19° ESE 00:57:07 10° ENE visible
05 Feb - 02:32:44 10° SW 02:38:44 89° SE 02:44:37 10° NE visible
05 Feb - 04:20:46 10° W 04:25:49 28° NNW 04:30:49 10° NNE visible
05 Feb - 06:10:38 10° NW 06:14:11 16° N 06:17:44 10° NNE daylight
05 Feb - 07:58:26 10° NNW 08:02:49 21° NNE 08:07:12 10° ENE daylight
05 Feb - 09:44:40 10° NNW 09:50:26 57° NE 09:56:12 10° SE daylight
05 Feb - 11:31:23 10° NW 11:36:31 33° WSW 11:41:41 10° S daylight
06 Feb - 00:57:18 10° SSE 01:02:11 27° ESE 01:07:01 10° NE visible
06 Feb - 02:42:09 10° SW 02:48:06 69° NW 02:53:58 10° NE visible
06 Feb - 04:30:50 10° WNW 04:35:30 23° NNW 04:40:09 10° NNE visible
06 Feb - 06:20:33 10° NW 06:24:03 16° N 06:27:32 10° NE daylight
06 Feb - 08:07:48 10° NNW 08:12:33 25° NNE 08:17:18 10° E daylight
06 Feb - 09:53:59 10° NW 09:59:50 76° NE 10:05:43 10° SE daylight
06 Feb - 11:41:08 10° WNW 11:45:37 23° WSW 11:50:07 10° SSW daylight
07 Feb - 01:05:52 10° S 01:11:19 38° ESE 01:16:40 10° NE visible
07 Feb - 02:51:44 10° WSW 02:57:32 52° NW 03:03:16 10° NNE visible
07 Feb - 04:40:57 10° WNW 04:45:15 20° NNW 04:49:30 10° NNE visible
07 Feb - 06:30:19 10° NNW 06:33:54 16° N 06:37:30 10° NE daylight
07 Feb - 08:17:07 10° NNW 08:22:13 30° NNE 08:27:19 10° E daylight
07 Feb - 10:03:20 10° NW 10:09:11 80° SW 10:15:04 10° SSE daylight
07 Feb - 11:51:13 10° WNW 11:54:38 16° WSW 11:58:04 10° SW daylight
